Regional Weather Roundup
Issued by NWS

Home | Current Version | Previous Version | Text Only | Print | Product List | Glossary Off
Versions: 1 2 3 4 5 6 7 8 9 10 11 12 13 14 15 16 17 18 19 20 21 22 23 24 25 26 27 28 29 30 31 32 33 34 35 36 37 38 39 40 41 42 43 44 45 46 47 48 49 50

000
ASUS43 KIND 180809
RWRIN

WEATHER ROUNDUP FOR INDIANA
NATIONAL WEATHER SERVICE INDIANAPOLIS IN
400 AM EDT WED OCT 18 2017

NOTE: "FAIR" INDICATES FEW OR NO CLOUDS BELOW 12,000 FEET WITH NO
SIGNIFICANT WEATHER AND/OR OBSTRUCTIONS TO VISIBILITY.

* - STATION DOES NOT REPORT WEATHER SUCH AS PRECIPITATION OR FOG.

+ - STATION NOT QUALITY CONTROLLED BY THE NATIONAL WEATHER SERVICE.
    USE DATA WITH CAUTION...ESPECIALLY DEWPOINT AND RELATIVE
    HUMIDITY OBSERVATIONS.

INZ001>003-010>013-019-020-180900-
NORTHWEST INDIANA

CITY           SKY/WX    TMP DP  RH WIND       PRES   REMARKS
GARY /AIRPORT/ CLEAR     53  38  57 S5        30.18S
KNOX *+        CLEAR     45  39  81 S5        30.20S
LA PORTE +     CLEAR     40  38  95 CALM      30.20S
MICHIGAN CITY+ CLEAR     50  39  66 S6        30.19S
MONTICELLO +   CLEAR     49  39  68 S5        30.21S
RENSSELAER +   CLEAR     43  36  75 CALM      30.21R
VALPARAISO     CLEAR     43  38  82 CALM      30.20R

$$

LMZ046-743>745-180900-
SOUTHERN LAKE MICHIGAN

STATION/POSITION TIME  TEMP    WIND        PRES    WAVE
                       AIR SEA DIR/SP/G            HT
                 (UTC) (F)     (DEG/KT/KT) (MB)    (FT)
BURNS HARBOR     0717   53     180/ 10/ 13 1022.4S
MICHIGAN CITY    0740   53     160/ 15/ 17   N/A
5NW MICH CITY    0800   55 57  200/ 14/ 16   N/A     2

$$

INZ004-005-014>016-021>024-180900-
NORTH CENTRAL INDIANA

CITY           SKY/WX    TMP DP  RH WIND       PRES   REMARKS
GOSHEN         CLEAR     48  38  68 S6        30.21S
LOGANSPORT +   CLEAR     41  37  87 CALM      30.23S
PERU/GRISSOM   CLEAR     45  39  80 S5        30.22S
SOUTH BEND     CLEAR     49  40  71 CALM      30.21R
WARSAW +       CLEAR     43  39  87 CALM      30.23R

$$

INZ006>009-017-018-025>027-180900-
NORTHEAST INDIANA

CITY           SKY/WX    TMP DP  RH WIND       PRES   REMARKS
AUBURN +       CLEAR     45  41  87 CALM      30.24S
FORT WAYNE     CLEAR     43  38  82 S6        30.24S
HUNTINGTON +   CLEAR     46  40  79 CALM      30.23F
KENDALLVILLE + CLEAR     47  40  76 S7        30.23S

$$

INZ028-029-035-036-043>045-051>053-180900-
WEST CENTRAL INDIANA

CITY           SKY/WX    TMP DP  RH WIND       PRES   REMARKS
GREENCASTLE +  CLEAR     43  39  87 CALM      30.24S
LAFAYETTE      CLEAR     42  40  92 CALM      30.22S
TERRE HAUTE    CLEAR     42  38  85 CALM      30.24S

$$

INZ030>032-037>040-046>048-054>057-064-065-180900-
CENTRAL INDIANA

CITY           SKY/WX    TMP DP  RH WIND       PRES   REMARKS
CP ATTERBURY + CLEAR     36  36 100 CALM      30.26S
FRANKFORT +    CLEAR     44  40  86 CALM      30.25R
GREENWOOD *+   PTCLDY    46  42  87 CALM      30.25S
INDIANAPOLIS   CLEAR     47  40  76 SE3       30.24S
-EAGLE CREEK   CLEAR     43  39  86 CALM      30.24S
KOKOMO +       CLEAR     44  39  82 S6        30.24S
MT COMFORT *+  PTCLDY    43  43 100 S5        30.25F
SHELBYVILLE    CLEAR     42  37  82 SE3       30.25S
ZIONSVILLE +   PTCLDY    40  38  95 CALM      30.25S

$$

INZ033-034-041-042-049-050-058-059-180900-
EAST CENTRAL INDIANA

CITY           SKY/WX    TMP DP  RH WIND       PRES   REMARKS
MUNCIE         CLEAR     45  39  79 S3        30.25S
RICHMOND +     CLEAR     37  36  93 SE3       30.28S

$$

INZ060-061-067>069-081>083-085>088-180900-
SOUTHWEST INDIANA

CITY           SKY/WX    TMP DP  RH WIND       PRES   REMARKS
EVANSVILLE     CLEAR     43  42  97 CALM      30.25S
HUNTINGBURG +  CLEAR     43  42  97 CALM      30.26S
WASHINGTON +   PTCLDY    40  38  94 SE3       30.25S

$$

INZ062-063-066-070>080-084-089>092-180900-
SOUTH CENTRAL AND SOUTHEAST INDIANA

CITY           SKY/WX    TMP DP  RH WIND       PRES   REMARKS
BLOOMINGTON    CLEAR     42  38  85 CALM      30.25S
MADISON *+     CLEAR     43  41  93 CALM      30.28F
SEYMOUR +      PTCLDY    39  39 100 CALM      30.26F FOG

$$




USA.gov is the U.S. government's official web portal to all federal, state and local government web resources and services.